Location: Jackson Park
(37.2862°N, 79.9123°W)
Time: 19:44:18
(UTC+00:00)

S-56A Canister/Altair - Pass Details

Date: 17 May 2026
Orbit: 633 x 2484 km, 38.9° (Epoch: 6 June)

Event Time Altitude Azimuth Distance (km) Brightness Sun altitude
Rises 07:22:57 0° 277° (W) 3,239 - -26.0°
Reaches altitude 10° 07:25:33 10° 262° (W) 2,482 - -25.7°
Maximum altitude 07:30:10 24° 210° (SSW) 1,996 - -25.2°
Drops below altitude 10° 07:36:15 10° 160° (SSE) 3,350 - -24.4°
Exits shadow 07:37:34 - 155° (SSE) 3,763 10.8 -24.3°
Sets 07:40:26 0° 148° (SSE) 4,682 11.3 -23.9°
